Weather History for Wheeling, WV

Change the Weather History Date:

Tuesday, January 15, 2013

  Actual Average Record
Temperature  
Mean Temperature 28 °F 29 °F  
Max Temperature 31 °F 36 °F 63 °F (1950)
Min Temperature 24 °F 22 °F 0 °F (2009)
Degree Days  
Heating Degree Days 37 36  
Month to date heating degree days 432 540  
Since 1 July heating degree days 2458 2665  
Cooling Degree Days 0    
Month to date cooling degree days 0  
Year to date cooling degree days 0  
Moisture  
Dew Point 22 °F    
Average Humidity 74    
Maximum Humidity 85    
Minimum Humidity 63    
Precipitation  
Precipitation 0.09 in 0.10 in 0.81 in (2007)
Month to date precipitation 0.41 1.56  
Sea Level Pressure  
Sea Level Pressure 30.26 in    
Wind  
Wind Speed 7 mph (NNE)    
Max Wind Speed 14 mph    
Max Gust Speed 17 mph    
Visibility 9 miles    
Events Rain    
T = Trace of Precipitation, MM = Missing Value Source: NWS Daily Summary

Daily Weather History Graph

Daily Weather History Graph

Search for Another Location

Airport:

Trip Planner

Search our weather history database for the weather conditions in past years. The results will help you decide how hot, cold, wet, or windy it might be!

Date:

Astronomy

Jan. 15, 2013 Rise Set
Actual Time 7:42 AM EST 5:21 PM EST
Civil Twilight 7:13 AM EST 5:51 PM EST
Nautical Twilight 6:39 AM EST 6:24 PM EST
Astronomical Twilight 6:07 AM EST 6:57 PM EST
Moon 9:47 AM EST (1/15) 10:10 PM EST (1/15)
Length of Visible Light 10h 38m
Length of Day
9h 38m
Waxing Crescent, 19% of the Moon is Illuminated
Jan 15
Waxing Crescent
Jan 18
First Quarter
Jan 26
Full
Feb 3
Last Quarter
Feb 10
New

Hourly Weather History & Observations

Time (EST) Temp. Windchill Dew Point Humidity Pressure Visibility Wind Dir Wind Speed Gust Speed Precip Events Conditions
12:53 AM 28.0 °F 21.7 °F 21.0 °F 75% 30.32 in 10.0 mi North 5.8 mph - N/A   Clear
1:53 AM 27.0 °F 20.5 °F 21.0 °F 78% 30.32 in 10.0 mi North 5.8 mph - N/A   Clear
2:53 AM 27.0 °F 20.5 °F 21.0 °F 78% 30.33 in 10.0 mi North 5.8 mph - N/A   Clear
3:53 AM 26.1 °F 17.6 °F 19.9 °F 78% 30.33 in 10.0 mi North 8.1 mph - N/A   Partly Cloudy
4:53 AM 26.1 °F 18.4 °F 21.0 °F 81% 30.33 in 10.0 mi North 6.9 mph - N/A   Overcast
5:53 AM 26.1 °F 19.4 °F 19.9 °F 78% 30.35 in 10.0 mi NNE 5.8 mph - N/A   Overcast
6:17 AM 24.8 °F 17.9 °F 19.4 °F 80% 30.30 in 10.0 mi North 5.8 mph - N/A   Scattered Clouds
7:53 AM 24.1 °F 17.0 °F 19.0 °F 81% 30.39 in 10.0 mi North 5.8 mph - N/A   Clear
8:53 AM 25.0 °F 19.3 °F 19.9 °F 81% 30.41 in 9.0 mi NNE 4.6 mph - N/A   Clear
9:53 AM 26.1 °F 16.2 °F 19.9 °F 78% 30.40 in 10.0 mi NE 10.4 mph - N/A   Clear
10:53 AM 27.0 °F 16.7 °F 19.9 °F 75% 30.40 in 10.0 mi NE 11.5 mph - N/A   Clear
11:53 AM 28.9 °F 21.9 °F 21.0 °F 72% 30.34 in 10.0 mi East 6.9 mph - N/A   Clear
12:53 PM 30.0 °F 26.5 °F 21.9 °F 72% 30.32 in 10.0 mi NNE 3.5 mph - N/A   Clear
1:53 PM 30.0 °F 24.1 °F 21.9 °F 72% 30.30 in 10.0 mi NNE 5.8 mph - N/A   Clear
2:53 PM 30.9 °F 23.5 °F 21.9 °F 69% 30.28 in 10.0 mi NNE 8.1 mph - N/A   Clear
3:53 PM 30.9 °F 22.8 °F 21.0 °F 67% 30.28 in 10.0 mi NE 9.2 mph - N/A   Clear
4:53 PM 30.9 °F 22.2 °F 19.9 °F 64% 30.24 in 10.0 mi NE 10.4 mph - N/A   Clear
5:53 PM 30.9 °F 24.3 °F 21.0 °F 67% 30.27 in 10.0 mi NNE 6.9 mph - N/A   Clear
6:53 PM 30.9 °F 25.2 °F 21.0 °F 67% 30.27 in 10.0 mi NE 5.8 mph - N/A   Partly Cloudy
7:53 PM 30.9 °F 22.8 °F 21.0 °F 67% 30.23 in 10.0 mi ENE 9.2 mph - N/A   Overcast
8:53 PM 30.9 °F 24.3 °F 21.9 °F 69% 30.19 in 10.0 mi NNE 6.9 mph - N/A   Overcast
9:53 PM 30.0 °F 23.2 °F 23.0 °F 75% 30.16 in 5.0 mi NE 6.9 mph - 0.00 in   Overcast
10:23 PM 30.2 °F 22.6 °F 24.8 °F 80% 30.08 in 4.0 mi NNE 8.1 mph - 0.03 in   Overcast
10:36 PM 30.2 °F 23.4 °F 24.8 °F 80% 30.09 in 4.0 mi NE 6.9 mph - 0.04 in Rain Light Freezing Rain
10:53 PM 30.0 °F 22.4 °F 26.1 °F 85% 30.12 in 5.0 mi NE 8.1 mph - 0.05 in Rain Light Freezing Rain
11:20 PM 30.2 °F 24.3 °F 26.6 °F 86% 30.07 in 6.0 mi NE 5.8 mph - 0.02 in Rain Light Freezing Rain
11:34 PM 30.2 °F 24.3 °F 26.6 °F 86% 30.05 in 6.0 mi NE 5.8 mph - 0.02 in   Overcast
11:53 PM 30.0 °F 24.1 °F 26.1 °F 85% 30.09 in 6.0 mi NE 5.8 mph - 0.04 in   Overcast